Location: Olsztyn
(53.7767°N, 20.4765°E)
Time: 00:01:29
(UTC+01:00)

Tiros 1 despin weight - Visible Passes

Search period start: 23 January 2022 00:00
Search period end: 02 February 2022 00:00
Orbit: 592 x 641 km, 48.2° (Epoch: 22 January)

Date Brightness Start Highest point End Pass type
(mag) Time Alt. Az. Time Alt. Az. Time Alt. Az.
23 Jan ? 16:59:05 10° S 17:01:50 16° SE 17:04:35 10° ESE visible
23 Jan ? 18:38:18 10° SW 18:42:23 34° SSE 18:42:23 34° SSE visible
23 Jan ? 20:19:07 10° WSW 20:19:25 12° WSW 20:19:25 12° WSW visible
24 Jan ? 17:13:55 10° SSW 17:17:29 23° SSE 17:20:49 11° ESE visible
24 Jan ? 18:54:01 10° WSW 18:57:51 39° S 18:57:51 39° S visible
25 Jan ? 17:29:15 10° SW 17:33:15 30° SSE 17:36:16 15° ESE visible
25 Jan ? 19:09:52 10° WSW 19:13:18 37° SSW 19:13:18 37° SSW visible
26 Jan ? 17:44:52 10° SW 17:49:05 37° SSE 17:51:42 20° ESE visible
26 Jan ? 19:25:47 10° WSW 19:28:44 32° SW 19:28:44 32° SW visible
27 Jan ? 18:00:38 10° WSW 18:04:56 41° S 18:07:08 25° ESE visible
27 Jan ? 19:41:46 10° W 19:44:10 25° WSW 19:44:10 25° WSW visible
28 Jan ? 18:16:30 10° WSW 18:20:49 42° S 18:22:35 29° SE visible
28 Jan ? 19:57:50 10° W 19:59:37 19° WSW 19:59:37 19° WSW visible
29 Jan ? 16:51:26 10° WSW 16:55:40 39° S 16:59:58 10° ESE visible
29 Jan ? 18:32:26 10° WSW 18:36:42 38° S 18:38:04 31° SSE visible
29 Jan ? 20:14:06 10° WSW 20:15:06 14° WSW 20:15:06 14° WSW visible
30 Jan ? 17:07:14 10° WSW 17:11:32 42° S 17:15:54 10° ESE visible
30 Jan ? 18:48:27 10° W 18:52:32 32° SSW 18:53:35 29° S visible
31 Jan ? 17:23:08 10° WSW 17:27:26 41° S 17:31:46 10° ESE visible
31 Jan ? 19:04:34 10° W 19:08:19 25° SSW 19:09:10 23° S visible
01 Feb ? 17:39:06 10° W 17:43:17 36° SSW 17:47:31 10° SE visible
01 Feb ? 19:20:57 10° WSW 19:24:00 18° SSW 19:24:51 17° SSW visible
